User: anonymous   Login
Location: Unspecified
(0.0000°N, 0.0000°E)
Time: 19:18:48
(UTC+00:00)
Language:

NNS O-31 - Orbit

View from above orbital plane
View from above orbital plane
View from above satellite
View from above satellite

Ground track
Ground track

The orbit data is extracted from the following two-line orbital elements,

1 19420U 88074B   17141.73182832 +.00000050 +00000-0 +69532-4 0  9995
2 19420 089.9865 019.0362 0095189 156.7252 272.7328 13.42176467407018
Epoch (UTC): 21 May 2017 17:33:49
Eccentricity: 0.0095189
inclination: 89.9865°
perigee height: 1030 km
apogee height: 1172 km
right ascension of ascending node: 19.0362°
argument of perigee: 156.7252°
revolutions per day: 13.42176467
mean anomaly at epoch: 272.7328°
orbit number at epoch: 40701

The dashed part of the orbit path shows where the satellite is in the earth's shadow,  

DLR